Location: Pasarilla del Rebollar
(40.6790°N, 5.0062°W)
Time: 12:11:06
(UTC+00:00)

Meteor 2-9 Rocket - Pass Details

Date: 22 April 2026
Orbit: 789 x 894 km, 81.3° (Epoch: 16 May)

Event Time Altitude Azimuth Distance (km) Brightness Sun altitude
Rises 02:44:32 0° 349° (N) 3,303 7.8 -27.3°
Reaches altitude 10° 02:46:55 10° 348° (NNW) 2,364 6.9 -27.0°
Enters shadow 02:52:09 80° 277° (W) 806 3.9 -26.3°
